NWS309 ULLI-UNTT

Flight info

Callsign NWS309
Flight time 3h 57m
Altitude 35000
Route KERIS1B KERIS P989 LUPOK L260 VELUS/K0824F370 L260 BEGBA T635 SADER T580 ADMUR G117 XV R229 DILOR R372 KEPET B716 GIPAN GIPAN1K
Aircraft A21N/M-SDE2E3FGHIRWXY/LB1

Departure

Time 2026-04-14 21:07
Airport Pulkovo Airport (ULLI)

Arrival

Time 2026-04-15 01:05
Airport Tomsk Kamov Airport (UNTT)
Time Latitude Longitude Altitude Speed Heading
2026-04-14 20:55 59.79893 30.26691 87 ft 0 kts 111°
2026-04-14 20:56 59.79897 30.26674 87 ft 4 kts 108°
2026-04-14 20:56 59.79901 30.26623 89 ft 4 kts 83°
2026-04-14 20:56 59.79892 30.26584 89 ft 4 kts 25°
2026-04-14 20:57 59.79887 30.26580 87 ft 2 kts 17°
2026-04-14 21:01 59.79892 30.26582 87 ft 2 kts 17°
2026-04-14 21:02 59.79911 30.26594 87 ft 4 kts 17°
2026-04-14 21:02 59.79947 30.26616 90 ft 7 kts 17°
2026-04-14 21:02 59.80000 30.26647 88 ft 9 kts 17°
2026-04-14 21:02 59.80068 30.26687 89 ft 11 kts 16°
2026-04-14 21:03 59.80153 30.26736 89 ft 14 kts 16°
2026-04-14 21:03 59.80249 30.26797 91 ft 14 kts 16°
2026-04-14 21:03 59.80340 30.26848 86 ft 13 kts 11°
2026-04-14 21:03 59.80413 30.26720 90 ft 16 kts 297°
2026-04-14 21:04 59.80449 30.26504 87 ft 18 kts 286°
2026-04-14 21:04 59.80485 30.26263 86 ft 19 kts 286°
2026-04-14 21:04 59.80524 30.25995 87 ft 21 kts 286°
2026-04-14 21:04 59.80567 30.25707 84 ft 23 kts 286°
2026-04-14 21:05 59.80613 30.25396 84 ft 24 kts 288°
2026-04-14 21:05 59.80664 30.25077 83 ft 24 kts 287°
2026-04-14 21:05 59.80708 30.24789 70 ft 16 kts 287°
2026-04-14 21:05 59.80776 30.24610 73 ft 18 kts 339°
2026-04-14 21:06 59.80904 30.24561 68 ft 20 kts 18°
2026-04-14 21:06 59.80938 30.24801 75 ft 21 kts 110°
2026-04-14 21:06 59.80926 30.24873 77 ft 0 kts 107°
2026-04-14 21:07 59.80879 30.25172 79 ft 64 kts 107°
2026-04-14 21:07 59.80662 30.26611 88 ft 148 kts 107°
2026-04-14 21:07 59.80281 30.28837 461 ft 180 kts 110°
2026-04-14 21:07 59.79814 30.31269 1268 ft 195 kts 109°
2026-04-14 21:08 59.79381 30.33901 2150 ft 208 kts 106°
2026-04-14 21:08 59.78941 30.36749 2744 ft 227 kts 104°
2026-04-14 21:08 59.78473 30.39871 3371 ft 242 kts 104°
2026-04-14 21:08 59.77989 30.43102 4284 ft 246 kts 105°
2026-04-14 21:09 59.77497 30.46391 5220 ft 250 kts 105°
2026-04-14 21:09 59.76999 30.49729 6116 ft 254 kts 105°
2026-04-14 21:09 59.76500 30.53073 6959 ft 258 kts 105°
2026-04-14 21:09 59.76024 30.56542 7783 ft 262 kts 100°
2026-04-14 21:10 59.75918 30.60183 8645 ft 267 kts 90°
2026-04-14 21:10 59.75942 30.63867 9488 ft 271 kts 89°
2026-04-14 21:10 59.76014 30.67619 10364 ft 272 kts 88°
2026-04-14 21:10 59.76160 30.71409 10927 ft 289 kts 85°
2026-04-14 21:11 59.76419 30.75527 11269 ft 311 kts 85°
2026-04-14 21:11 59.76663 30.79929 11673 ft 328 kts 86°
2026-04-14 21:11 59.76878 30.84484 12368 ft 334 kts 87°
2026-04-14 21:11 59.77072 30.89111 13140 ft 338 kts 88°
2026-04-14 21:12 59.77254 30.93783 13872 ft 342 kts 89°
2026-04-14 21:12 59.77428 30.98526 14589 ft 347 kts 89°
2026-04-14 21:12 59.77601 31.03325 15284 ft 350 kts 89°
2026-04-14 21:12 59.77773 31.08198 15970 ft 355 kts 90°
2026-04-14 21:13 59.78085 31.13108 16589 ft 362 kts 84°
2026-04-14 21:13 59.78413 31.18087 17207 ft 365 kts 88°
2026-04-14 21:13 59.78637 31.23126 17815 ft 368 kts 89°
2026-04-14 21:14 59.78998 31.33321 18967 ft 376 kts 90°
2026-04-14 21:14 59.79169 31.38517 19541 ft 379 kts 90°
2026-04-14 21:14 59.79337 31.43763 20075 ft 382 kts 90°
2026-04-14 21:14 59.79505 31.49067 20603 ft 385 kts 91°
2026-04-14 21:15 59.79670 31.54400 21119 ft 389 kts 91°
2026-04-14 21:15 59.79835 31.59777 21627 ft 391 kts 91°
2026-04-14 21:15 59.80000 31.65192 22117 ft 394 kts 91°
2026-04-14 21:15 59.80163 31.70662 22610 ft 398 kts 91°
2026-04-14 21:16 59.80323 31.76112 23093 ft 400 kts 91°
2026-04-14 21:16 59.80483 31.81659 23559 ft 404 kts 91°
2026-04-14 21:16 59.80644 31.87315 24030 ft 407 kts 91°
2026-04-14 21:16 59.80803 31.92943 24496 ft 409 kts 91°
2026-04-14 21:17 59.80959 31.98605 24947 ft 412 kts 91°
2026-04-14 21:17 59.81112 32.04247 25399 ft 415 kts 91°
2026-04-14 21:17 59.81265 32.09992 25840 ft 417 kts 91°
2026-04-14 21:17 59.81417 32.15782 26260 ft 420 kts 91°
2026-04-14 21:18 59.81566 32.21601 26678 ft 423 kts 91°
2026-04-14 21:18 59.81714 32.27447 27074 ft 425 kts 91°
2026-04-14 21:18 59.81952 32.33343 27457 ft 431 kts 86°
2026-04-14 21:18 59.82588 32.39196 27830 ft 437 kts 80°
2026-04-14 21:19 59.83522 32.44983 28183 ft 443 kts 73°
2026-04-14 21:19 59.84279 32.48772 28421 ft 445 kts 73°
2026-04-14 21:19 59.85682 32.56460 28863 ft 446 kts 76°
2026-04-14 21:19 59.86615 32.62356 29181 ft 448 kts 78°
2026-04-14 21:20 59.87493 32.68324 29509 ft 449 kts 79°
2026-04-14 21:20 59.88350 32.74309 29901 ft 449 kts 79°
2026-04-14 21:20 59.88924 32.78343 30189 ft 448 kts 79°
2026-04-14 21:20 59.89770 32.84312 30576 ft 448 kts 79°
2026-04-14 21:21 59.90614 32.90284 30956 ft 447 kts 79°
2026-04-14 21:21 59.91442 32.96168 31318 ft 446 kts 79°
2026-04-14 21:21 59.92279 33.02132 31668 ft 447 kts 79°
2026-04-14 21:21 59.93114 33.08098 32019 ft 446 kts 79°
2026-04-14 21:22 59.93945 33.14067 32369 ft 446 kts 79°
2026-04-14 21:22 59.94773 33.20032 32674 ft 446 kts 79°
2026-04-14 21:22 59.95602 33.26002 32988 ft 446 kts 79°
2026-04-14 21:22 59.96429 33.31959 33296 ft 445 kts 79°
2026-04-14 21:23 59.97253 33.37924 33582 ft 445 kts 79°
2026-04-14 21:23 59.98074 33.43885 33892 ft 445 kts 79°
2026-04-14 21:23 59.98895 33.49876 34167 ft 445 kts 79°
2026-04-14 21:23 59.99697 33.55755 34409 ft 445 kts 78°
2026-04-14 21:24 60.00509 33.61733 34626 ft 445 kts 78°
2026-04-14 21:24 60.01275 33.67736 34838 ft 444 kts 82°
2026-04-14 21:24 60.01842 33.73807 35059 ft 444 kts 83°
2026-04-14 21:24 60.02456 33.79861 35291 ft 445 kts 81°
2026-04-14 21:25 60.03118 33.85899 35468 ft 446 kts 82°
2026-04-14 21:25 60.03734 33.91966 35491 ft 445 kts 81°
2026-04-14 21:25 60.05155 34.04025 35468 ft 445 kts 79°
2026-04-14 21:26 60.06722 34.16034 35461 ft 445 kts 78°
2026-04-14 21:26 60.08279 34.27970 35461 ft 446 kts 79°
2026-04-14 21:27 60.09837 34.40000 35459 ft 446 kts 78°
2026-04-14 21:27 60.11394 34.52067 35460 ft 446 kts 79°
2026-04-14 21:28 60.12931 34.64164 35459 ft 447 kts 79°
2026-04-14 21:28 60.14447 34.76204 35461 ft 447 kts 79°
2026-04-14 21:29 60.15965 34.88340 35460 ft 448 kts 78°
2026-04-14 21:29 60.17471 35.00501 35461 ft 448 kts 79°
2026-04-14 21:30 60.18956 35.12602 35461 ft 448 kts 78°
2026-04-14 21:30 60.20452 35.24797 35458 ft 448 kts 79°
2026-04-14 21:31 60.21941 35.36993 35458 ft 448 kts 79°
2026-04-14 21:31 60.23412 35.49121 35451 ft 448 kts 79°
2026-04-14 21:32 60.24883 35.61324 35450 ft 448 kts 79°
2026-04-14 21:32 60.26339 35.73522 35451 ft 448 kts 79°
2026-04-14 21:33 60.27785 35.85725 35451 ft 447 kts 79°
2026-04-14 21:33 60.29198 35.97844 35449 ft 447 kts 79°
2026-04-14 21:34 60.30618 36.10068 35448 ft 447 kts 79°
2026-04-14 21:34 60.32016 36.22311 35440 ft 447 kts 79°
2026-04-14 21:35 60.33396 36.34500 35440 ft 447 kts 79°
2026-04-14 21:35 60.34781 36.46779 35436 ft 448 kts 79°
2026-04-14 21:36 60.36155 36.59070 35431 ft 448 kts 79°
2026-04-14 21:36 60.37522 36.71310 35431 ft 449 kts 79°
2026-04-14 21:37 60.38884 36.83641 35425 ft 449 kts 79°
2026-04-14 21:37 60.40235 36.95992 35421 ft 450 kts 79°
2026-04-14 21:38 60.41573 37.08370 35421 ft 450 kts 79°
2026-04-14 21:38 60.42892 37.20705 35420 ft 450 kts 79°
2026-04-14 21:39 60.44203 37.33048 35419 ft 450 kts 79°
2026-04-14 21:39 60.45505 37.45442 35420 ft 450 kts 79°
2026-04-14 21:40 60.46799 37.57865 35417 ft 450 kts 79°
2026-04-14 21:40 60.48121 37.70252 35408 ft 448 kts 79°
2026-04-14 21:41 60.49429 37.82630 35409 ft 448 kts 79°
2026-04-14 21:41 60.50714 37.94932 35412 ft 448 kts 79°
2026-04-14 21:42 60.52016 38.07329 35411 ft 448 kts 79°
2026-04-14 21:42 60.53289 38.19755 35408 ft 449 kts 79°
2026-04-14 21:43 60.54539 38.32094 35410 ft 449 kts 79°
2026-04-14 21:43 60.55791 38.44539 35409 ft 449 kts 79°
2026-04-14 21:44 60.57034 38.57035 35412 ft 450 kts 79°
2026-04-14 21:44 60.58260 38.69422 35409 ft 450 kts 79°
2026-04-14 21:45 60.59481 38.81936 35411 ft 450 kts 79°
2026-04-14 21:45 60.60605 38.94493 35410 ft 451 kts 81°
2026-04-14 21:46 60.61683 39.07011 35413 ft 451 kts 81°
2026-04-14 21:46 60.62755 39.19616 35419 ft 451 kts 81°
2026-04-14 21:47 60.63811 39.32220 35420 ft 451 kts 81°
2026-04-14 21:47 60.64857 39.44845 35420 ft 451 kts 81°
2026-04-14 21:48 60.65888 39.57427 35420 ft 451 kts 81°
2026-04-14 21:48 60.66912 39.70080 35420 ft 451 kts 81°
2026-04-14 21:49 60.67909 39.82654 35420 ft 450 kts 81°
2026-04-14 21:49 60.68911 39.95290 35421 ft 450 kts 81°
2026-04-14 21:50 60.69905 40.07941 35420 ft 451 kts 81°
2026-04-14 21:50 60.70872 40.20529 35423 ft 452 kts 81°
2026-04-14 21:51 60.71832 40.33205 35429 ft 451 kts 81°
2026-04-14 21:51 60.72785 40.45895 35430 ft 452 kts 81°
2026-04-14 21:52 60.73725 40.58603 35432 ft 452 kts 81°
2026-04-14 21:52 60.74657 40.71352 35440 ft 453 kts 81°
2026-04-14 21:53 60.75574 40.84112 35440 ft 453 kts 81°
2026-04-14 21:53 60.76477 40.96835 35440 ft 454 kts 81°
2026-04-14 21:54 60.77374 41.09626 35440 ft 453 kts 81°
2026-04-14 21:54 60.78256 41.22424 35441 ft 454 kts 81°
2026-04-14 21:55 60.79119 41.35167 35440 ft 454 kts 81°
2026-04-14 21:55 60.79976 41.47950 35440 ft 454 kts 81°
2026-04-14 21:56 60.80306 41.60871 35444 ft 455 kts 90°
2026-04-14 21:56 60.80144 41.73865 35450 ft 455 kts 91°
2026-04-14 21:57 60.79977 41.86854 35449 ft 455 kts 91°
2026-04-14 21:57 60.79818 41.99745 35451 ft 455 kts 91°
2026-04-14 21:58 60.79641 42.12725 35450 ft 455 kts 91°
2026-04-14 21:58 60.79445 42.25700 35450 ft 456 kts 91°
2026-04-14 21:59 60.79254 42.38654 35450 ft 455 kts 91°
2026-04-14 21:59 60.79042 42.51644 35450 ft 455 kts 91°
2026-04-14 22:00 60.78809 42.64530 35449 ft 455 kts 91°
2026-04-14 22:00 60.78572 42.77505 35450 ft 455 kts 91°
2026-04-14 22:01 60.78322 42.90454 35457 ft 455 kts 91°
2026-04-14 22:01 60.78059 43.03337 35462 ft 455 kts 91°
2026-04-14 22:02 60.77780 43.16298 35459 ft 455 kts 91°
2026-04-14 22:02 60.77487 43.29239 35460 ft 455 kts 91°
2026-04-14 22:03 60.77185 43.42106 35459 ft 455 kts 91°
2026-04-14 22:03 60.76872 43.55060 35461 ft 455 kts 91°
2026-04-14 22:04 60.76543 43.68014 35460 ft 455 kts 91°
2026-04-14 22:04 60.76206 43.80901 35466 ft 455 kts 91°
2026-04-14 22:05 60.75857 43.93764 35486 ft 455 kts 92°
2026-04-14 22:05 60.75555 44.04537 35491 ft 455 kts 92°
2026-04-14 22:06 60.75182 44.17465 35488 ft 455 kts 92°
2026-04-14 22:06 60.74797 44.30410 35491 ft 454 kts 92°
2026-04-14 22:07 60.74398 44.43262 35491 ft 455 kts 92°
2026-04-14 22:07 60.73910 44.58300 35490 ft 455 kts 92°
2026-04-14 22:08 60.73556 44.69052 35486 ft 455 kts 92°
2026-04-14 22:08 60.73112 44.81955 35489 ft 454 kts 92°
2026-04-14 22:09 60.72680 44.94865 35492 ft 454 kts 92°
2026-04-14 22:09 60.72243 45.07681 35488 ft 454 kts 91°
2026-04-14 22:10 60.72517 45.20539 35492 ft 452 kts 83°
2026-04-14 22:10 60.73052 45.33341 35496 ft 452 kts 83°
2026-04-14 22:11 60.73557 45.46181 35497 ft 453 kts 83°
2026-04-14 22:11 60.74056 45.58949 35501 ft 453 kts 83°
2026-04-14 22:12 60.74541 45.71825 35507 ft 453 kts 83°
2026-04-14 22:12 60.75014 45.84686 35509 ft 453 kts 83°
2026-04-14 22:13 60.75474 45.97553 35509 ft 453 kts 83°
2026-04-14 22:13 60.75926 46.10323 35511 ft 453 kts 83°
2026-04-14 22:14 60.76362 46.23184 35506 ft 452 kts 83°
2026-04-14 22:14 60.76775 46.36051 35519 ft 452 kts 84°
2026-04-14 22:15 60.77103 46.48831 35520 ft 452 kts 84°
2026-04-14 22:15 60.77417 46.61661 35520 ft 451 kts 84°
2026-04-14 22:16 60.77743 46.74493 35526 ft 451 kts 84°
2026-04-14 22:16 60.78061 46.87317 35531 ft 450 kts 84°
2026-04-14 22:17 60.78358 47.00031 35530 ft 449 kts 85°
2026-04-14 22:17 60.78644 47.12829 35532 ft 449 kts 85°
2026-04-14 22:18 60.78924 47.25611 35540 ft 449 kts 85°
2026-04-14 22:18 60.79184 47.38315 35540 ft 448 kts 85°
2026-04-14 22:19 60.79553 47.57415 35549 ft 448 kts 85°
2026-04-14 22:20 60.79780 47.70173 35549 ft 448 kts 85°
2026-04-14 22:20 60.80001 47.82916 35550 ft 447 kts 85°
2026-04-14 22:21 60.80213 47.95582 35553 ft 447 kts 86°
2026-04-14 22:21 60.80415 48.08348 35560 ft 447 kts 86°
2026-04-14 22:22 60.80605 48.21001 35561 ft 446 kts 86°
2026-04-14 22:22 60.80779 48.33733 35560 ft 446 kts 86°
2026-04-14 22:23 60.80952 48.46478 35562 ft 446 kts 86°
2026-04-14 22:23 60.81111 48.59140 35570 ft 446 kts 86°
2026-04-14 22:24 60.81260 48.71862 35569 ft 447 kts 86°
2026-04-14 22:24 60.81398 48.84621 35571 ft 446 kts 86°
2026-04-14 22:25 60.81522 48.97278 35569 ft 447 kts 86°
2026-04-14 22:25 60.81633 49.10019 35579 ft 446 kts 86°
2026-04-14 22:26 60.81741 49.22753 35580 ft 447 kts 86°
2026-04-14 22:26 60.81823 49.35419 35581 ft 446 kts 86°
2026-04-14 22:27 60.81885 49.48162 35584 ft 446 kts 86°
2026-04-14 22:27 60.81950 49.60827 35590 ft 446 kts 86°
2026-04-14 22:28 60.82004 49.73564 35591 ft 446 kts 86°
2026-04-14 22:28 60.82042 49.86293 35591 ft 446 kts 87°
2026-04-14 22:29 60.82069 49.98967 35590 ft 447 kts 86°
2026-04-14 22:29 60.82111 50.11708 35590 ft 446 kts 86°
2026-04-14 22:30 60.82131 50.24335 35589 ft 446 kts 86°
2026-04-14 22:30 60.82139 50.37067 35590 ft 446 kts 87°
2026-04-14 22:31 60.82112 50.49727 35590 ft 446 kts 87°
2026-04-14 22:31 60.82086 50.62456 35590 ft 446 kts 87°
2026-04-14 22:32 60.82055 50.75171 35590 ft 446 kts 87°
2026-04-14 22:32 60.82007 50.87822 35590 ft 445 kts 87°
2026-04-14 22:33 60.81941 51.00517 35591 ft 445 kts 87°
2026-04-14 22:33 60.81860 51.13143 35590 ft 445 kts 87°
2026-04-14 22:34 60.81775 51.25836 35591 ft 445 kts 87°
2026-04-14 22:34 60.81684 51.38516 35591 ft 445 kts 87°
2026-04-14 22:35 60.81596 51.51227 35590 ft 445 kts 87°
2026-04-14 22:35 60.81482 51.63847 35592 ft 446 kts 87°
2026-04-14 22:36 60.81360 51.76566 35589 ft 446 kts 87°
2026-04-14 22:36 60.81238 51.89274 35584 ft 446 kts 87°
2026-04-14 22:37 60.81096 52.01989 35581 ft 446 kts 88°
2026-04-14 22:37 60.80939 52.14635 35581 ft 446 kts 87°
2026-04-14 22:38 60.80773 52.27374 35581 ft 446 kts 88°
2026-04-14 22:38 60.80596 52.40114 35572 ft 447 kts 88°
2026-04-14 22:39 60.80400 52.52778 35570 ft 447 kts 88°
2026-04-14 22:39 60.80200 52.65504 35569 ft 446 kts 88°
2026-04-14 22:40 60.80010 52.78225 35566 ft 446 kts 88°
2026-04-14 22:40 60.79789 52.90857 35560 ft 447 kts 88°
2026-04-14 22:41 60.79542 53.03583 35561 ft 446 kts 88°
2026-04-14 22:41 60.79298 53.16315 35555 ft 447 kts 88°
2026-04-14 22:42 60.79037 53.28946 35551 ft 446 kts 88°
2026-04-14 22:42 60.78774 53.41668 35551 ft 446 kts 88°
2026-04-14 22:43 60.78496 53.54400 35542 ft 447 kts 88°
2026-04-14 22:43 60.78187 53.67027 35541 ft 448 kts 89°
2026-04-14 22:44 60.77854 53.79783 35533 ft 447 kts 89°
2026-04-14 22:44 60.77510 53.92512 35530 ft 448 kts 89°
2026-04-14 22:45 60.77161 54.05179 35530 ft 448 kts 89°
2026-04-14 22:45 60.76818 54.17839 35521 ft 448 kts 89°
2026-04-14 22:46 60.76450 54.30648 35519 ft 448 kts 89°
2026-04-14 22:46 60.76066 54.43314 35515 ft 449 kts 89°
2026-04-14 22:47 60.75676 54.56066 35506 ft 449 kts 89°
2026-04-14 22:47 60.75276 54.68810 35514 ft 449 kts 89°
2026-04-14 22:48 60.74865 54.81567 35501 ft 449 kts 89°
2026-04-14 22:48 60.74445 54.94231 35505 ft 450 kts 89°
2026-04-14 22:49 60.74008 55.07036 35497 ft 450 kts 89°
2026-04-14 22:49 60.73555 55.19809 35482 ft 449 kts 89°
2026-04-14 22:50 60.73100 55.32505 35493 ft 450 kts 89°
2026-04-14 22:50 60.72626 55.45276 35486 ft 451 kts 89°
2026-04-14 22:51 60.72125 55.58065 35482 ft 451 kts 90°
2026-04-14 22:51 60.71614 55.70761 35482 ft 451 kts 90°
2026-04-14 22:52 60.71078 55.83552 35474 ft 451 kts 90°
2026-04-14 22:52 60.70534 55.96334 35470 ft 451 kts 90°
2026-04-14 22:53 60.69982 56.09110 35462 ft 451 kts 90°
2026-04-14 22:53 60.69398 56.21814 35462 ft 452 kts 90°
2026-04-14 22:54 60.68819 56.34594 35465 ft 452 kts 90°
2026-04-14 22:54 60.68205 56.47353 35462 ft 452 kts 90°
2026-04-14 22:55 60.67575 56.60120 35461 ft 451 kts 90°
2026-04-14 22:55 60.66965 56.72824 35461 ft 452 kts 90°
2026-04-14 22:56 60.66456 56.83434 35460 ft 452 kts 90°
2026-04-14 22:56 60.65808 56.96187 35452 ft 451 kts 91°
2026-04-14 22:57 60.65118 57.08911 35453 ft 451 kts 91°
2026-04-14 22:57 60.64465 57.21537 35450 ft 451 kts 90°
2026-04-14 22:58 60.63804 57.34304 35450 ft 452 kts 91°
2026-04-14 22:58 60.63110 57.47048 35444 ft 452 kts 91°
2026-04-14 22:59 60.62416 57.59820 35442 ft 453 kts 90°
2026-04-14 22:59 60.61749 57.72520 35441 ft 453 kts 91°
2026-04-14 23:00 60.61045 57.85326 35440 ft 454 kts 91°
2026-04-14 23:00 60.60298 57.98115 35442 ft 455 kts 91°
2026-04-14 23:01 60.59587 58.10844 35439 ft 455 kts 91°
2026-04-14 23:01 60.58822 58.23668 35432 ft 456 kts 92°
2026-04-14 23:02 60.58039 58.36408 35430 ft 456 kts 91°
2026-04-14 23:02 60.57252 58.49230 35429 ft 456 kts 91°
2026-04-14 23:03 60.56487 58.62057 35429 ft 455 kts 91°
2026-04-14 23:03 60.55686 58.74827 35429 ft 455 kts 92°
2026-04-14 23:04 60.54882 58.87527 35430 ft 455 kts 91°
2026-04-14 23:04 60.54059 59.00291 35429 ft 456 kts 92°
2026-04-14 23:05 60.53231 59.13087 35424 ft 456 kts 91°
2026-04-14 23:05 60.52395 59.25867 35420 ft 456 kts 91°
2026-04-14 23:06 60.51539 59.38579 35421 ft 456 kts 92°
2026-04-14 23:06 60.50666 59.51365 35421 ft 457 kts 92°
2026-04-14 23:07 60.49785 59.64077 35419 ft 457 kts 92°
2026-04-14 23:07 60.48872 59.76883 35421 ft 458 kts 92°
2026-04-14 23:08 60.47954 59.89693 35421 ft 459 kts 92°
2026-04-14 23:08 60.47044 60.02437 35418 ft 459 kts 92°
2026-04-14 23:09 60.46100 60.15260 35420 ft 460 kts 92°
2026-04-14 23:09 60.45154 60.28091 35421 ft 460 kts 92°
2026-04-14 23:10 60.44192 60.40936 35404 ft 461 kts 92°
2026-04-14 23:10 60.43219 60.53684 35392 ft 461 kts 92°
2026-04-14 23:11 60.42222 60.66504 35390 ft 460 kts 92°
2026-04-14 23:11 60.41216 60.79314 35390 ft 461 kts 92°
2026-04-14 23:12 60.40183 60.92153 35378 ft 461 kts 92°
2026-04-14 23:12 60.39166 61.04904 35370 ft 462 kts 92°
2026-04-14 23:13 60.38119 61.17747 35369 ft 462 kts 93°
2026-04-14 23:13 60.37050 61.30593 35368 ft 463 kts 93°
2026-04-14 23:14 60.35986 61.43357 35369 ft 464 kts 93°
2026-04-14 23:14 60.34901 61.56243 35358 ft 465 kts 93°
2026-04-14 23:15 60.33808 61.69136 35364 ft 466 kts 93°
2026-04-14 23:15 60.32696 61.81963 35365 ft 466 kts 93°
2026-04-14 23:16 60.31566 61.94885 35357 ft 467 kts 93°
2026-04-14 23:16 60.30419 62.07806 35361 ft 468 kts 94°
2026-04-14 23:17 60.29276 62.20733 35360 ft 468 kts 93°
2026-04-14 23:17 60.28132 62.33670 35358 ft 468 kts 93°
2026-04-14 23:18 60.26379 62.52980 35357 ft 469 kts 94°
2026-04-14 23:18 60.25190 62.65885 35360 ft 468 kts 94°
2026-04-14 23:19 60.23994 62.78796 35362 ft 469 kts 94°
2026-04-14 23:19 60.22804 62.91642 35360 ft 469 kts 94°
2026-04-14 23:20 60.21587 63.04547 35352 ft 470 kts 94°
2026-04-14 23:20 60.20349 63.17495 35349 ft 471 kts 94°
2026-04-14 23:21 60.19104 63.30352 35344 ft 472 kts 94°
2026-04-14 23:21 60.17846 63.43348 35350 ft 473 kts 94°
2026-04-14 23:22 60.16557 63.56368 35355 ft 476 kts 94°
2026-04-14 23:22 60.15271 63.69325 35351 ft 475 kts 94°
2026-04-14 23:23 60.13954 63.82352 35346 ft 477 kts 95°
2026-04-14 23:23 60.12952 63.95427 35351 ft 468 kts 85°
2026-04-14 23:24 60.12767 64.08445 35353 ft 468 kts 84°
2026-04-14 23:24 60.12611 64.21509 35352 ft 468 kts 84°
2026-04-14 23:25 60.12446 64.34556 35348 ft 466 kts 84°
2026-04-14 23:25 60.12256 64.47477 35353 ft 466 kts 84°
2026-04-14 23:26 60.12053 64.60487 35351 ft 466 kts 85°
2026-04-14 23:26 60.11829 64.73460 35349 ft 465 kts 85°
2026-04-14 23:27 60.11525 64.86399 35340 ft 467 kts 88°
2026-04-14 23:27 60.10980 64.99339 35336 ft 465 kts 88°
2026-04-14 23:28 60.10415 65.12203 35338 ft 465 kts 89°
2026-04-14 23:28 60.09819 65.25137 35340 ft 466 kts 89°
2026-04-14 23:29 60.09225 65.38098 35337 ft 466 kts 89°
2026-04-14 23:29 60.08620 65.51001 35333 ft 470 kts 90°
2026-04-14 23:30 60.07993 65.64075 35330 ft 471 kts 90°
2026-04-14 23:30 60.07338 65.77148 35330 ft 472 kts 90°
2026-04-14 23:31 60.06686 65.90259 35330 ft 472 kts 90°
2026-04-14 23:31 60.06017 66.03288 35331 ft 473 kts 91°
2026-04-14 23:32 60.05330 66.16418 35330 ft 473 kts 90°
2026-04-14 23:32 60.04616 66.29544 35331 ft 474 kts 91°
2026-04-14 23:33 60.03882 66.42555 35330 ft 472 kts 91°
2026-04-14 23:33 60.03183 66.55627 35331 ft 472 kts 91°
2026-04-14 23:34 60.02447 66.68620 35330 ft 469 kts 91°
2026-04-14 23:34 60.01720 66.81573 35332 ft 467 kts 91°
2026-04-14 23:35 60.00968 66.94398 35331 ft 467 kts 91°
2026-04-14 23:35 60.00180 67.07286 35331 ft 467 kts 92°
2026-04-14 23:36 59.99354 67.20225 35332 ft 471 kts 92°
2026-04-14 23:36 59.98542 67.33163 35332 ft 472 kts 93°
2026-04-14 23:37 59.97731 67.46191 35331 ft 472 kts 93°
2026-04-14 23:37 59.96940 67.59123 35330 ft 471 kts 92°
2026-04-14 23:38 59.96130 67.72110 35329 ft 470 kts 93°
2026-04-14 23:38 59.95289 67.84983 35330 ft 470 kts 93°
2026-04-14 23:39 59.94427 67.97923 35326 ft 469 kts 94°
2026-04-14 23:39 59.93548 68.10850 35329 ft 469 kts 94°
2026-04-14 23:40 59.92654 68.23671 35329 ft 469 kts 94°
2026-04-14 23:40 59.91760 68.36568 35331 ft 469 kts 94°
2026-04-14 23:41 59.90841 68.49501 35328 ft 470 kts 94°
2026-04-14 23:41 59.89915 68.62332 35330 ft 470 kts 94°
2026-04-14 23:42 59.88952 68.75247 35331 ft 471 kts 95°
2026-04-14 23:42 59.87981 68.88166 35330 ft 471 kts 95°
2026-04-14 23:43 59.87187 68.98910 35329 ft 470 kts 95°
2026-04-14 23:43 59.86209 69.11810 35330 ft 470 kts 95°
2026-04-14 23:44 59.85216 69.24598 35322 ft 469 kts 95°
2026-04-14 23:44 59.84220 69.37437 35321 ft 469 kts 95°
2026-04-14 23:45 59.83201 69.50236 35321 ft 468 kts 96°
2026-04-14 23:45 59.82028 69.62937 35314 ft 471 kts 102°
2026-04-14 23:46 59.80182 69.75462 35322 ft 471 kts 104°
2026-04-14 23:46 59.78323 69.87863 35332 ft 470 kts 104°
2026-04-14 23:47 59.76448 70.00310 35331 ft 470 kts 104°
2026-04-14 23:47 59.74547 70.12746 35332 ft 470 kts 104°
2026-04-14 23:48 59.72661 70.25107 35332 ft 470 kts 104°
2026-04-14 23:48 59.70773 70.37526 35325 ft 470 kts 104°
2026-04-14 23:49 59.68855 70.49938 35322 ft 471 kts 104°
2026-04-14 23:49 59.66916 70.62276 35321 ft 472 kts 104°
2026-04-14 23:50 59.64953 70.74719 35322 ft 472 kts 104°
2026-04-14 23:50 59.63009 70.87058 35313 ft 473 kts 104°
2026-04-14 23:51 59.61025 70.99459 35311 ft 472 kts 104°
2026-04-14 23:51 59.59062 71.11763 35310 ft 472 kts 104°
2026-04-14 23:52 59.57076 71.24123 35312 ft 472 kts 105°
2026-04-14 23:52 59.55046 71.36451 35302 ft 472 kts 105°
2026-04-14 23:53 59.53022 71.48757 35301 ft 471 kts 105°
2026-04-14 23:53 59.51013 71.60952 35301 ft 470 kts 105°
2026-04-14 23:54 59.48992 71.73179 35297 ft 470 kts 105°
2026-04-14 23:54 59.46954 71.85414 35293 ft 469 kts 105°
2026-04-14 23:55 59.44908 71.97604 35292 ft 469 kts 105°
2026-04-14 23:55 59.42861 72.09688 35284 ft 469 kts 105°
2026-04-14 23:56 59.40783 72.21863 35292 ft 469 kts 106°
2026-04-14 23:56 59.38719 72.33930 35293 ft 469 kts 106°
2026-04-14 23:57 59.36631 72.46086 35278 ft 469 kts 106°
2026-04-14 23:57 59.34517 72.58228 35275 ft 470 kts 106°
2026-04-14 23:58 59.32401 72.70271 35283 ft 470 kts 106°
2026-04-14 23:58 59.30326 72.82074 35270 ft 471 kts 107°
2026-04-14 23:59 59.28177 72.94200 35283 ft 471 kts 106°
2026-04-14 23:59 59.26019 73.06303 35278 ft 471 kts 107°
2026-04-15 00:00 59.23854 73.18336 35264 ft 471 kts 107°
2026-04-15 00:00 59.21668 73.30428 35265 ft 471 kts 107°
2026-04-15 00:01 59.19475 73.42477 35248 ft 471 kts 107°
2026-04-15 00:01 59.17266 73.54531 35246 ft 472 kts 107°
2026-04-15 00:02 59.15056 73.66524 35199 ft 472 kts 107°
2026-04-15 00:02 59.12816 73.78566 35176 ft 472 kts 107°
2026-04-15 00:03 59.10570 73.90599 35173 ft 472 kts 107°
2026-04-15 00:03 59.08318 74.02553 35172 ft 472 kts 108°
2026-04-15 00:04 59.06069 74.14569 35171 ft 472 kts 107°
2026-04-15 00:04 59.03804 74.26553 35171 ft 473 kts 108°
2026-04-15 00:05 59.01544 74.38480 35171 ft 473 kts 108°
2026-04-15 00:05 58.99259 74.50495 35171 ft 473 kts 108°
2026-04-15 00:06 58.96969 74.62394 35162 ft 473 kts 108°
2026-04-15 00:06 58.94654 74.74370 35160 ft 474 kts 108°
2026-04-15 00:07 58.92323 74.86353 35160 ft 474 kts 108°
2026-04-15 00:07 58.90003 74.98216 35160 ft 473 kts 108°
2026-04-15 00:08 58.87667 75.10144 35160 ft 473 kts 108°
2026-04-15 00:08 58.85318 75.22071 35160 ft 474 kts 108°
2026-04-15 00:09 58.82960 75.33895 35160 ft 473 kts 108°
2026-04-15 00:09 58.80588 75.45760 35160 ft 473 kts 108°
2026-04-15 00:10 58.78200 75.57610 35152 ft 473 kts 108°
2026-04-15 00:10 58.75815 75.69356 35151 ft 473 kts 109°
2026-04-15 00:11 58.73414 75.81118 35150 ft 472 kts 109°
2026-04-15 00:11 58.71004 75.92885 35150 ft 472 kts 109°
2026-04-15 00:12 58.68603 76.04566 35150 ft 472 kts 109°
2026-04-15 00:12 58.66158 76.16321 35149 ft 471 kts 109°
2026-04-15 00:13 58.63728 76.27951 35150 ft 471 kts 109°
2026-04-15 00:13 58.61271 76.39632 35150 ft 471 kts 109°
2026-04-15 00:14 58.58782 76.51262 35143 ft 472 kts 112°
2026-04-15 00:14 58.55957 76.62671 35108 ft 473 kts 113°
2026-04-15 00:15 58.53111 76.73944 35096 ft 473 kts 114°
2026-04-15 00:15 58.50226 76.85321 35094 ft 474 kts 114°
2026-04-15 00:16 58.47381 76.96509 35094 ft 474 kts 114°
2026-04-15 00:16 58.44500 77.07817 35096 ft 473 kts 114°
2026-04-15 00:17 58.41591 77.19102 35080 ft 473 kts 114°
2026-04-15 00:17 58.38681 77.30346 35080 ft 472 kts 114°
2026-04-15 00:18 58.34329 77.47103 35084 ft 471 kts 114°
2026-04-15 00:19 58.31411 77.58264 35089 ft 470 kts 114°
2026-04-15 00:19 58.28487 77.69405 35075 ft 470 kts 115°
2026-04-15 00:20 58.25572 77.80436 35075 ft 469 kts 115°
2026-04-15 00:20 58.22632 77.91501 35075 ft 469 kts 115°
2026-04-15 00:21 58.19685 78.02559 35077 ft 469 kts 115°
2026-04-15 00:21 58.16746 78.13530 35068 ft 469 kts 115°
2026-04-15 00:22 58.13783 78.24538 35071 ft 469 kts 115°
2026-04-15 00:22 58.10814 78.35520 35074 ft 469 kts 115°
2026-04-15 00:23 58.07850 78.46431 35068 ft 469 kts 115°
2026-04-15 00:23 58.04848 78.57422 35068 ft 470 kts 115°
2026-04-15 00:24 58.01837 78.68384 35061 ft 470 kts 116°
2026-04-15 00:24 57.98829 78.79280 35060 ft 470 kts 116°
2026-04-15 00:25 57.95791 78.90249 35062 ft 471 kts 116°
2026-04-15 00:25 57.92753 79.01141 35059 ft 472 kts 116°
2026-04-15 00:26 57.89692 79.12095 35050 ft 473 kts 116°
2026-04-15 00:26 57.86609 79.23038 35049 ft 472 kts 117°
2026-04-15 00:27 57.83549 79.33870 35050 ft 472 kts 117°
2026-04-15 00:27 57.80463 79.44756 35049 ft 472 kts 117°
2026-04-15 00:28 57.77367 79.55612 35048 ft 471 kts 117°
2026-04-15 00:28 57.74287 79.66365 35040 ft 470 kts 116°
2026-04-15 00:29 57.72158 79.77836 35043 ft 466 kts 99°
2026-04-15 00:29 57.71009 79.89791 35042 ft 466 kts 98°
2026-04-15 00:30 57.69856 80.01654 35042 ft 466 kts 98°
2026-04-15 00:30 57.68651 80.13564 35042 ft 466 kts 98°
2026-04-15 00:31 57.67436 80.25498 35041 ft 466 kts 99°
2026-04-15 00:31 57.66212 80.37329 35035 ft 467 kts 99°
2026-04-15 00:32 57.64958 80.49280 35029 ft 468 kts 101°
2026-04-15 00:32 57.63393 80.58983 35029 ft 471 kts 107°
2026-04-15 00:33 57.60995 80.72490 35029 ft 472 kts 107°
2026-04-15 00:33 57.59268 80.82183 35031 ft 473 kts 107°
2026-04-15 00:34 57.57198 80.93768 35029 ft 474 kts 107°
2026-04-15 00:34 57.55102 81.05439 35029 ft 473 kts 107°
2026-04-15 00:35 57.53013 81.17001 35029 ft 472 kts 107°
2026-04-15 00:35 57.50913 81.28542 35020 ft 466 kts 107°
2026-04-15 00:36 57.48814 81.40039 35024 ft 474 kts 108°
2026-04-15 00:36 57.46694 81.51560 35020 ft 474 kts 108°
2026-04-15 00:37 57.44543 81.63149 35018 ft 474 kts 108°
2026-04-15 00:37 57.42384 81.74748 35024 ft 474 kts 108°
2026-04-15 00:38 57.40215 81.86318 35017 ft 473 kts 108°
2026-04-15 00:38 57.38063 81.97709 35020 ft 467 kts 108°
2026-04-15 00:39 57.35912 82.09043 35022 ft 474 kts 108°
2026-04-15 00:39 57.33721 82.20518 34585 ft 469 kts 108°
2026-04-15 00:39 57.32631 82.26204 33958 ft 468 kts 108°
2026-04-15 00:40 57.31539 82.31883 33296 ft 468 kts 109°
2026-04-15 00:40 57.30438 82.37588 32643 ft 469 kts 109°
2026-04-15 00:40 57.29330 82.43288 31976 ft 470 kts 109°
2026-04-15 00:40 57.28221 82.48981 31361 ft 470 kts 109°
2026-04-15 00:41 57.27114 82.54670 30768 ft 468 kts 110°
2026-04-15 00:41 57.26025 82.60247 30215 ft 466 kts 110°
2026-04-15 00:41 57.24932 82.65838 29658 ft 464 kts 110°
2026-04-15 00:41 57.23833 82.71439 29071 ft 462 kts 110°
2026-04-15 00:42 57.22737 82.77008 28489 ft 460 kts 110°
2026-04-15 00:42 57.21643 82.82559 27917 ft 458 kts 110°
2026-04-15 00:42 57.20562 82.88005 27346 ft 456 kts 110°
2026-04-15 00:42 57.19469 82.93501 26767 ft 454 kts 110°
2026-04-15 00:43 57.18389 82.98906 26391 ft 444 kts 110°
2026-04-15 00:43 57.17331 83.04206 26031 ft 438 kts 110°
2026-04-15 00:43 57.16282 83.09448 25566 ft 434 kts 110°
2026-04-15 00:43 57.15254 83.14586 25053 ft 432 kts 110°
2026-04-15 00:44 57.14214 83.19768 24493 ft 431 kts 110°
2026-04-15 00:44 57.13172 83.24937 23930 ft 429 kts 111°
2026-04-15 00:44 57.12131 83.30087 23387 ft 428 kts 111°
2026-04-15 00:44 57.11093 83.35214 22837 ft 427 kts 111°
2026-04-15 00:45 57.10056 83.40313 22297 ft 425 kts 111°
2026-04-15 00:45 57.09020 83.45397 21733 ft 423 kts 111°
2026-04-15 00:45 57.07983 83.50469 21149 ft 422 kts 111°
2026-04-15 00:45 57.06952 83.55515 20607 ft 418 kts 111°
2026-04-15 00:46 57.05950 83.60435 20076 ft 413 kts 111°
2026-04-15 00:46 57.04951 83.65334 19568 ft 407 kts 111°
2026-04-15 00:46 57.03959 83.70166 19076 ft 401 kts 111°
2026-04-15 00:46 57.02988 83.74881 18628 ft 395 kts 112°
2026-04-15 00:47 57.02023 83.79564 18180 ft 389 kts 112°
2026-04-15 00:47 57.01068 83.84180 17740 ft 383 kts 112°
2026-04-15 00:47 57.00126 83.88738 17298 ft 378 kts 112°
2026-04-15 00:47 56.99200 83.93206 16858 ft 372 kts 112°
2026-04-15 00:48 56.98287 83.97631 16429 ft 370 kts 112°
2026-04-15 00:48 56.97381 84.01981 16000 ft 369 kts 112°
2026-04-15 00:48 56.96461 84.06376 15571 ft 368 kts 112°
2026-04-15 00:48 56.95546 84.10733 15166 ft 365 kts 112°
2026-04-15 00:49 56.94632 84.15069 14768 ft 361 kts 112°
2026-04-15 00:49 56.93733 84.19317 14343 ft 353 kts 112°
2026-04-15 00:49 56.92856 84.23466 13938 ft 351 kts 112°
2026-04-15 00:49 56.91985 84.27608 13540 ft 346 kts 112°
2026-04-15 00:50 56.91121 84.31704 13163 ft 341 kts 112°
2026-04-15 00:50 56.90270 84.35724 12798 ft 336 kts 112°
2026-04-15 00:50 56.89433 84.39668 12438 ft 330 kts 112°
2026-04-15 00:50 56.88608 84.43573 12065 ft 325 kts 112°
2026-04-15 00:51 56.87788 84.47427 11681 ft 324 kts 113°
2026-04-15 00:51 56.86969 84.51235 11317 ft 319 kts 113°
2026-04-15 00:51 56.86160 84.54999 10969 ft 317 kts 113°
2026-04-15 00:51 56.85361 84.58713 10668 ft 311 kts 113°
2026-04-15 00:52 56.84593 84.62287 10445 ft 300 kts 113°
2026-04-15 00:52 56.83842 84.65781 10245 ft 290 kts 114°
2026-04-15 00:52 56.83116 84.69154 10067 ft 280 kts 114°
2026-04-15 00:52 56.82406 84.72441 9857 ft 277 kts 114°
2026-04-15 00:53 56.81698 84.75706 9582 ft 276 kts 114°
2026-04-15 00:53 56.80993 84.78952 9283 ft 274 kts 114°
2026-04-15 00:53 56.80301 84.82138 8987 ft 272 kts 115°
2026-04-15 00:53 56.79605 84.85338 8686 ft 270 kts 115°
2026-04-15 00:54 56.78912 84.88514 8390 ft 269 kts 115°
2026-04-15 00:54 56.78220 84.91687 8095 ft 267 kts 115°
2026-04-15 00:54 56.77537 84.94813 7813 ft 266 kts 115°
2026-04-15 00:54 56.76856 84.97931 7542 ft 265 kts 115°
2026-04-15 00:55 56.76175 85.01044 7250 ft 263 kts 115°
2026-04-15 00:55 56.75505 85.04099 6956 ft 262 kts 115°
2026-04-15 00:55 56.74831 85.07168 6662 ft 261 kts 115°
2026-04-15 00:55 56.74162 85.10207 6359 ft 259 kts 115°
2026-04-15 00:56 56.73492 85.13241 6067 ft 257 kts 115°
2026-04-15 00:56 56.72825 85.16263 5774 ft 256 kts 115°
2026-04-15 00:56 56.72161 85.19274 5473 ft 254 kts 116°
2026-04-15 00:56 56.71502 85.22254 5189 ft 253 kts 116°
2026-04-15 00:57 56.70836 85.25245 4861 ft 264 kts 116°
2026-04-15 00:57 56.70158 85.28292 4623 ft 260 kts 116°
2026-04-15 00:57 56.69354 85.31199 4321 ft 252 kts 131°
2026-04-15 00:57 56.68078 85.33214 4001 ft 238 kts 157°
2026-04-15 00:58 56.66555 85.34100 3733 ft 229 kts 172°
2026-04-15 00:58 56.65005 85.34630 3452 ft 224 kts 173°
2026-04-15 00:58 56.63492 85.35154 3208 ft 216 kts 172°
2026-04-15 00:58 56.62051 85.35677 3020 ft 206 kts 172°
2026-04-15 00:59 56.60665 85.36186 2698 ft 202 kts 172°
2026-04-15 00:59 56.59286 85.36703 2505 ft 204 kts 171°
2026-04-15 00:59 56.57920 85.37222 2476 ft 197 kts 170°
2026-04-15 00:59 56.56640 85.37715 2469 ft 184 kts 170°
2026-04-15 01:00 56.55386 85.38192 2477 ft 184 kts 170°
2026-04-15 01:00 56.54135 85.38643 2489 ft 183 kts 174°
2026-04-15 01:00 56.52889 85.38433 2493 ft 181 kts 202°
2026-04-15 01:00 56.51788 85.37322 2503 ft 181 kts 213°
2026-04-15 01:01 56.50760 85.35995 2502 ft 180 kts 216°
2026-04-15 01:01 56.49750 85.34698 2498 ft 180 kts 214°
2026-04-15 01:01 56.48716 85.33425 2494 ft 180 kts 213°
2026-04-15 01:01 56.47692 85.32197 2483 ft 166 kts 213°
2026-04-15 01:02 56.46787 85.31118 2366 ft 147 kts 213°
2026-04-15 01:02 56.45977 85.30153 2162 ft 136 kts 214°
2026-04-15 01:02 56.45182 85.29208 1980 ft 138 kts 213°
2026-04-15 01:02 56.44367 85.28238 1796 ft 141 kts 213°
2026-04-15 01:03 56.43545 85.27261 1643 ft 141 kts 213°
2026-04-15 01:03 56.42736 85.26298 1467 ft 129 kts 213°
2026-04-15 01:03 56.42011 85.25438 1291 ft 123 kts 213°
2026-04-15 01:03 56.41306 85.24601 1117 ft 123 kts 213°
2026-04-15 01:04 56.40591 85.23752 961 ft 123 kts 213°
2026-04-15 01:04 56.39876 85.22900 804 ft 123 kts 213°
2026-04-15 01:04 56.39151 85.22065 649 ft 124 kts 210°
2026-04-15 01:04 56.38451 85.21210 614 ft 110 kts 216°
2026-04-15 01:05 56.37927 85.20550 574 ft 67 kts 204°
2026-04-15 01:05 56.37754 85.20390 574 ft 14 kts 192°
2026-04-15 01:05 56.37669 85.20305 572 ft 16 kts 280°
2026-04-15 01:05 56.37712 85.20274 572 ft 0 kts 16°
2026-04-15 01:06 56.37712 85.20275 572 ft 0 kts 17°
2026-04-15 01:07 56.37713 85.20275 572 ft 0 kts 19°
2026-04-15 01:07 56.37714 85.20276 572 ft 0 kts 22°
2026-04-15 01:07 56.37718 85.20280 573 ft 2 kts 24°
2026-04-15 01:08 56.37739 85.20302 575 ft 5 kts 32°
2026-04-15 01:08 56.37773 85.20325 573 ft 5 kts 330°
2026-04-15 01:08 56.37802 85.20269 573 ft 8 kts 307°
2026-04-15 01:08 56.37839 85.20178 573 ft 10 kts 307°
2026-04-15 01:09 56.37912 85.20157 576 ft 13 kts 24°
2026-04-15 01:09 56.37997 85.20254 573 ft 16 kts 31°
2026-04-15 01:09 56.38095 85.20378 573 ft 18 kts 40°
2026-04-15 01:09 56.38196 85.20545 573 ft 20 kts 41°
2026-04-15 01:10 56.38316 85.20712 573 ft 23 kts 33°
2026-04-15 01:10 56.38469 85.20856 573 ft 26 kts 27°
2026-04-15 01:10 56.38611 85.20990 573 ft 18 kts 30°
2026-04-15 01:10 56.38683 85.21070 573 ft 3 kts 31°
2026-04-15 01:11 56.38719 85.21079 576 ft 7 kts 342°
2026-04-15 01:11 56.38741 85.21042 573 ft 3 kts 310°
2026-04-15 01:11 56.38755 85.21009 577 ft 0 kts 305°